Tracking 19794 objects as of 22-Jul-2019
HD Live streaming from Space Station
objects crossing your sky now

FENGYUN 1C DEB

Track FENGYUN 1C DEB now!
10-day predictions


NORAD ID: 32316
Int'l Code: 1999-025CXH
Perigee: 757.8 km
Apogee: 820.5 km
Inclination: 99.5 °
Period: 100.5 minutes
Semi major axis: 7160 km
RCS: 0.0087 m2 (small)
Launch date: May 10, 1999
Source: People's Republic of China (PRC)
Launch site: Taiyaun Space Center, China (TSC)

Note: This is SATELLITE DEBRIS
aabbcc
Your satellite tracking list
Your tracking list is empty




NASA's NSSDC Master Catalog

Two Line Element Set (TLE):
1 32316U 99025CXH 19202.23671402 +.00000632 +00000-0 +24795-3 0  9990
2 32316 099.5079 304.3890 0043808 258.3507 131.4199 14.32911467621977
Source of the keplerian elements: AFSPC